Time,TemperatureF,DewpointF,PressureIn,WindDirection,WindDirectionDegrees,WindSpeedMPH,WindSpeedGustMPH,Humidity,HourlyPrecipIn,Conditions,Clouds,dailyrainin,SolarRadiationWatts/m^2,SoftwareType,DateUTC
2013-06-20 00:11:00,61.0,60.0,-100.00,NW,312,0.0,0.0,96,0.00,,,0.01,0.000000,,2013-06-20 04:11:00,
2013-06-20 00:23:00,61.0,60.0,-100.00,NW,312,0.0,0.0,96,0.00,,,0.01,0.000000,,2013-06-20 04:23:00,
2013-06-20 00:34:00,61.0,60.0,-100.00,NW,312,0.0,0.0,96,0.00,,,0.01,0.000000,,2013-06-20 04:34:00,
2013-06-20 00:43:00,61.0,60.0,-100.00,NW,312,0.0,0.0,96,0.00,,,0.01,0.000000,,2013-06-20 04:43:00,
2013-06-20 01:12:00,60.0,59.0,-100.00,WSW,240,0.0,2.0,97,0.00,,,0.01,0.000000,,2013-06-20 05:12:00,
2013-06-20 01:22:00,60.0,59.0,-100.00,WSW,240,0.0,2.0,97,0.00,,,0.01,0.000000,,2013-06-20 05:22:00,
2013-06-20 01:33:00,60.0,59.0,-100.00,WSW,240,0.0,2.0,97,0.00,,,0.01,0.000000,,2013-06-20 05:33:00,
2013-06-20 01:44:00,60.0,59.0,-100.00,WSW,240,0.0,2.0,97,0.00,,,0.01,0.000000,,2013-06-20 05:44:00,
2013-06-20 02:11:00,59.0,58.0,-100.00,NNE,31,0.0,0.0,98,0.00,,,0.01,0.000000,,2013-06-20 06:11:00,
2013-06-20 02:22:00,59.0,58.0,-100.00,NNE,31,0.0,0.0,98,0.00,,,0.01,0.000000,,2013-06-20 06:22:00,
2013-06-20 02:34:00,59.0,58.0,-100.00,NNE,31,0.0,0.0,98,0.00,,,0.01,0.000000,,2013-06-20 06:34:00,
2013-06-20 02:43:00,59.0,58.0,-100.00,NNE,31,0.0,0.0,98,0.00,,,0.01,0.000000,,2013-06-20 06:43:00,
2013-06-20 03:12:00,58.0,58.0,-100.00,North,5,1.0,2.0,99,0.00,,,0.01,0.000000,,2013-06-20 07:12:00,
2013-06-20 03:22:00,58.0,58.0,-100.00,North,5,1.0,2.0,99,0.00,,,0.01,0.000000,,2013-06-20 07:22:00,
2013-06-20 03:34:00,58.0,58.0,-100.00,North,5,1.0,2.0,99,0.00,,,0.01,0.000000,,2013-06-20 07:34:00,
2013-06-20 03:44:00,58.0,58.0,-100.00,North,5,1.0,2.0,99,0.00,,,0.01,0.000000,,2013-06-20 07:44:00,
2013-06-20 04:11:00,58.0,58.0,-100.00,SE,141,0.0,0.0,99,0.00,,,0.01,0.000000,,2013-06-20 08:11:00,
2013-06-20 04:22:00,58.0,58.0,-100.00,SE,141,0.0,0.0,99,0.00,,,0.01,0.000000,,2013-06-20 08:22:00,
2013-06-20 04:34:00,58.0,58.0,-100.00,SE,141,0.0,0.0,99,0.00,,,0.01,0.000000,,2013-06-20 08:34:00,
2013-06-20 04:43:00,58.0,58.0,-100.00,SE,141,0.0,0.0,99,0.00,,,0.01,0.000000,,2013-06-20 08:43:00,
2013-06-20 05:22:00,57.0,57.0,-100.00,NNE,29,0.0,0.0,99,0.00,,,0.01,0.000000,,2013-06-20 09:22:00,
2013-06-20 05:33:00,57.0,57.0,-100.00,NNE,29,0.0,0.0,99,0.00,,,0.01,0.000000,,2013-06-20 09:33:00,
2013-06-20 05:42:00,57.0,57.0,-100.00,NNE,29,0.0,0.0,99,0.00,,,0.01,0.000000,,2013-06-20 09:42:00,
2013-06-20 06:11:00,57.0,57.0,-100.00,NNW,347,0.0,1.0,100,0.00,,,0.01,0.000000,,2013-06-20 10:11:00,
2013-06-20 06:22:00,57.0,57.0,-100.00,NNW,347,0.0,1.0,100,0.00,,,0.01,0.000000,,2013-06-20 10:22:00,
2013-06-20 06:34:00,57.0,57.0,-100.00,NNW,347,0.0,1.0,100,0.00,,,0.01,0.000000,,2013-06-20 10:34:00,
2013-06-20 06:43:00,57.0,57.0,-100.00,NNW,347,0.0,1.0,100,0.00,,,0.01,0.000000,,2013-06-20 10:43:00,
2013-06-20 07:22:00,56.0,56.0,-100.00,North,7,0.0,2.0,100,0.00,,,0.01,7.000000,,2013-06-20 11:22:00,
2013-06-20 07:34:00,56.0,56.0,-100.00,North,7,0.0,2.0,100,0.00,,,0.01,7.000000,,2013-06-20 11:34:00,
2013-06-20 07:42:00,56.0,56.0,-100.00,North,7,0.0,2.0,100,0.00,,,0.01,7.000000,,2013-06-20 11:42:00,
2013-06-20 08:12:00,63.0,63.0,-100.00,NE,39,0.0,3.0,99,0.00,,,0.00,118.000000,,2013-06-20 12:12:00,
2013-06-20 08:22:00,63.0,63.0,-100.00,NE,39,0.0,3.0,99,0.00,,,0.00,118.000000,,2013-06-20 12:22:00,
2013-06-20 08:34:00,63.0,63.0,-100.00,NE,39,0.0,3.0,99,0.00,,,0.00,118.000000,,2013-06-20 12:34:00,
2013-06-20 08:43:00,63.0,63.0,-100.00,NE,39,0.0,3.0,99,0.00,,,0.00,118.000000,,2013-06-20 12:43:00,
2013-06-20 09:22:00,69.0,59.0,-100.00,ESE,120,4.0,7.0,71,0.00,,,0.00,277.000000,,2013-06-20 13:22:00,
2013-06-20 09:33:00,69.0,59.0,-100.00,ESE,120,4.0,7.0,71,0.00,,,0.00,277.000000,,2013-06-20 13:33:00,
2013-06-20 09:42:00,69.0,59.0,-100.00,ESE,120,4.0,7.0,71,0.00,,,0.00,277.000000,,2013-06-20 13:42:00,
2013-06-20 10:22:00,73.0,61.0,-100.00,SE,136,4.0,7.0,66,0.00,,,0.00,402.000000,,2013-06-20 14:22:00,
2013-06-20 10:32:00,73.0,61.0,-100.00,SE,136,4.0,7.0,66,0.00,,,0.00,402.000000,,2013-06-20 14:32:00,
2013-06-20 10:42:00,73.0,61.0,-100.00,SE,136,4.0,7.0,66,0.00,,,0.00,402.000000,,2013-06-20 14:42:00,
2013-06-20 11:11:00,77.0,61.0,-100.00,SSE,165,6.0,9.0,57,0.00,,,0.00,709.000000,,2013-06-20 15:11:00,
2013-06-20 11:22:00,77.0,61.0,-100.00,SSE,165,6.0,9.0,57,0.00,,,0.00,709.000000,,2013-06-20 15:22:00,
2013-06-20 11:33:00,77.0,61.0,-100.00,SSE,165,6.0,9.0,57,0.00,,,0.00,709.000000,,2013-06-20 15:33:00,
2013-06-20 11:43:00,77.0,61.0,-100.00,SSE,165,6.0,9.0,57,0.00,,,0.00,709.000000,,2013-06-20 15:43:00,
2013-06-20 12:12:00,80.0,60.0,-100.00,SE,133,5.0,10.0,51,0.00,,,0.00,811.000000,,2013-06-20 16:12:00,
2013-06-20 12:22:00,80.0,60.0,-100.00,SE,133,5.0,10.0,51,0.00,,,0.00,811.000000,,2013-06-20 16:22:00,
2013-06-20 12:33:00,80.0,60.0,-100.00,SE,133,5.0,10.0,51,0.00,,,0.00,811.000000,,2013-06-20 16:33:00,
2013-06-20 12:43:00,80.0,60.0,-100.00,SE,133,5.0,10.0,51,0.00,,,0.00,811.000000,,2013-06-20 16:43:00,
2013-06-20 13:22:00,82.0,59.0,-100.00,ESE,119,6.0,10.0,45,0.00,,,0.00,967.000000,,2013-06-20 17:22:00,
2013-06-20 13:32:00,82.0,59.0,-100.00,ESE,119,6.0,10.0,45,0.00,,,0.00,967.000000,,2013-06-20 17:32:00,
2013-06-20 13:43:00,82.0,59.0,-100.00,ESE,119,6.0,10.0,45,0.00,,,0.00,967.000000,,2013-06-20 17:43:00,
2013-06-20 14:11:00,84.0,55.0,-100.00,ESE,105,5.0,10.0,37,0.00,,,0.00,1030.000000,,2013-06-20 18:11:00,
2013-06-20 14:22:00,84.0,55.0,-100.00,ESE,105,5.0,10.0,37,0.00,,,0.00,1030.000000,,2013-06-20 18:22:00,
2013-06-20 14:33:00,84.0,55.0,-100.00,ESE,105,5.0,10.0,37,0.00,,,0.00,1030.000000,,2013-06-20 18:33:00,
2013-06-20 14:43:00,84.0,55.0,-100.00,ESE,105,5.0,10.0,37,0.00,,,0.00,1030.000000,,2013-06-20 18:43:00,
2013-06-20 15:11:00,82.0,57.0,-100.00,East,86,5.0,13.0,42,0.00,,,-99.99,812.000000,,2013-06-20 19:11:00,
2013-06-20 15:22:00,82.0,57.0,-100.00,East,86,5.0,13.0,42,0.00,,,-99.99,812.000000,,2013-06-20 19:22:00,
2013-06-20 15:34:00,82.0,57.0,-100.00,East,86,5.0,13.0,42,0.00,,,-99.99,812.000000,,2013-06-20 19:34:00,
2013-06-20 15:43:00,82.0,57.0,-100.00,East,86,5.0,13.0,42,0.00,,,-99.99,812.000000,,2013-06-20 19:43:00,
2013-06-20 16:22:00,81.0,57.0,-100.00,East,98,5.0,8.0,44,0.00,,,0.00,647.000000,,2013-06-20 20:22:00,
2013-06-20 16:33:00,81.0,57.0,-100.00,East,98,5.0,8.0,44,0.00,,,0.00,647.000000,,2013-06-20 20:33:00,
2013-06-20 16:42:00,81.0,57.0,-100.00,East,98,5.0,8.0,44,0.00,,,0.00,647.000000,,2013-06-20 20:42:00,